User: anonymous   Login
Location: Unspecified
(0.0000°N, 0.0000°E)
Time: 09:05:56
(UTC+02:00)
Language:

SeaSat 1 - Orbit

View from above orbital plane
View from above orbital plane
View from above satellite
View from above satellite

Ground track
Ground track

The orbit data is extracted from the following two-line orbital elements,

1 10967U 78064A   15186.19177781  .00000128  00000-0  78383-4 0  9994
2 10967 107.9939 250.2827 0001385 288.6369 071.4625 14.43408824943715
Epoch (UTC): 05 July 2015 04:36:09
Eccentricity: 0.0001385
inclination: 107.9939°
perigee height: 746 km
apogee height: 748 km
right ascension of ascending node: 250.2827°
argument of perigee: 288.6369°
revolutions per day: 14.43408824
mean anomaly at epoch: 71.4625°
orbit number at epoch: 94371

The dashed part of the orbit path shows where the satellite is in the earth's shadow,  

DLR